Regional Weather Roundup
Issued by NWS

Home | Current Version | Previous Version | Text Only | Print | Product List | Glossary On
Versions: 1 2 3 4 5 6 7 8 9 10 11 12 13 14 15 16 17 18 19 20 21 22 23 24 25 26 27
000
ASUS42 KTBW 290916
RWRFL
FLORIDA REGIONAL WEATHER ROUNDUP
NATIONAL WEATHER SERVICE TAMPA BAY RUSKIN FL
500 AM EDT WED MAR 29 2017

NOTE: "FAIR" INDICATES FEW OR NO CLOUDS BELOW 12,000 FEET WITH NO
SIGNIFICANT WEATHER AND/OR OBSTRUCTIONS TO VISIBILITY.

FLZ001>010-012>015-112-114-115-291000-
PANHANDLE FLORIDA

CITY           SKY/WX    TMP DP  RH WIND       PRES   REMARKS
PENSACOLA      MOCLDY    68  65  90 S5        29.95F
PENSACOLA NAS  CLOUDY    70  67  90 S7        29.94F
MILTON NAS     LGT RAIN  63  63 100 CALM      29.95  VSB 1/2
CRESTVIEW      FOG       66  65  96 CALM      29.97F VSB 1/4
DUKE FIELD     FOG       62  62 100 CALM      29.95F VSB 1/2
VALPARAISO     PTCLDY    67  67  98 CALM      29.96F
MARY ESTHER    CLEAR     68  68 100 CALM      29.95F
TRI COUNTY     CLOUDY    67  67 100 S3        29.98
PANAMA CITY    FOG       59  58  96 CALM      29.96F VSB 1/2
TYNDALL AFB    CLEAR     61  61  99 CALM      29.97S FOG
APALACHICOLA   FOG       60  60 100 CALM      29.97F VSB 1/4

STATION/POSITION SKY/WX   TEMP    WIND        PRES    WAVE   SWELL
                          AIR SEA DIR/SP/G            HT/PER HT/PER
                          (F)     (DEG/KT/KT) (MB)    (FT/S) (FT/S)
30.1N   87.6W              70 71  150/ 10/ 12 1013.6F   2/ 6   2/ 6
29.2N   88.2W              72 74  150/ 14/ 17 1013.5F   3/ 5
28.8N   86.0W              72 72              1015.0F   2/ 5   2/ 5
PANAMA CITY BEAC           69 73  160/  5/  6 1015.0F
TOWER C                    68        CALM     1015.7F
28.5N   84.5W              69 72   60/  4/  4 1015.2F   1/ 6

$$
FLZ011-016>038-118-127-128-134-139-239-291000-
NORTH FLORIDA

CITY           SKY/WX    TMP DP  RH WIND       PRES   REMARKS
MARIANNA       MOCLDY    67  66  97 S3        29.97S
TALLAHASSEE    FOG       60  60 100 CALM      29.98F VSB 1/2
PERRY          FOG       62  62  97 CALM      30.00S VSB 1/4
CROSS CITY     CLEAR     54  52  94 CALM      29.99S
LAKE CITY      FAIR      57  57 100 SW3       29.99S
GAINESVILLE    CLEAR     57  55  93 CALM      29.99F
WILLISTON      FOG       59  57  94 CALM      30.00S VSB 0
PALATKA        FOG       55  55 100 CALM      30.00S VSB 3/4
MAYPORT NAS    CLEAR     67  60  78 W7        29.97F
JACKSONVILLE   CLEAR     59  58  96 S3        29.97S
JAX NAS        CLEAR     65  58  78 CALM      29.98F
FERNANDINA BEA FAIR      66  61  82 CALM      29.95S
ST AUGUSTINE   CLEAR     62  57  83 CALM      29.99S

STATION/POSITION SKY/WX   TEMP    WIND        PRES    WAVE   SWELL
                          AIR SEA DIR/SP/G            HT/PER HT/PER
                          (F)     (DEG/KT/KT) (MB)    (FT/S) (FT/S)
SHELL POINT      NOT AVBL
KEATON BEACH               69     310/  4/  6 1015.1F
CEDAR KEY                  69     320/  2/  3 1016.1F
FERNANDINA                 66 71  250/  3/  4 1015.4F
30.7N   81.3W                 68                N/A     3/10   2/11
MAYPORT                    67 69  270/  6/  7 1015.1F
31.4N   80.9W              67 65  250/  6/  8 1014.1F   3/10   3/10
ST AUGUSTINE               64 67  200/  3/  3 1016.1F

$$
FLZ040-043>046-052-053-057-058-063-144-291000-
INTERIOR CENTRAL FLORIDA

CITY           SKY/WX    TMP DP  RH WIND       PRES   REMARKS
OCALA            N/A     57  54  88 CALM      30.00F VSB 3/4
THE VILLAGES     N/A     61  61 100 CALM      29.91S
LEESBURG       PTCLDY    62  61  96 W3        30.01S
SANFORD        CLEAR     64  58  80 CALM      30.00S
ORLANDO EXEC   CLEAR     67  59  75 SW3       30.00S
ORLANDO INTL   CLEAR     65  59  81 CALM      30.00S
KISSIMMEE      CLEAR     63  59  87 CALM      30.01S
WINTER HAVEN   CLEAR     64  59  83 CALM      30.01S
LAKELAND       CLEAR     63  61  94 CALM      30.00S
BARTOW         FAIR      59  59 100 CALM      30.00S
OKEECHOBEE     PTCLDY   N/A N/A N/A CALM      30.00S

$$
FLZ041-047-054-059-064-141-147-291000-
EAST CENTRAL FLORIDA

CITY           SKY/WX    TMP DP  RH WIND       PRES   REMARKS
DAYTONA BEACH  CLEAR     61  58  90 CALM      29.99F
DELAND         CLEAR     61  57  88 CALM      29.99S
JFK SPACE CTR  CLEAR     67  64  89 W6        29.99R
CAPE CANAVERAL CLEAR     67  62  85 CALM      29.99R
PATRICK AFB    CLEAR     69  64  84 SW6       29.99S
MELBOURNE      PTCLDY    65  62  90 SW3       29.99F
VERO BEACH     PTCLDY    61  60  97 W3        30.00S
FT PIERCE      CLEAR     59  58  96 CALM      30.00S
STUART         CLEAR     68  63  83 W3        30.00R

STATION/POSITION SKY/WX   TEMP    WIND        PRES    WAVE   SWELL
                          AIR SEA DIR/SP/G            HT/PER HT/PER
                          (F)     (DEG/KT/KT) (MB)    (FT/S) (FT/S)
TRIDENT PIER               70 74  210/  5/  7 1016.9R
28.4N   80.5W                 72                N/A     2/10   2/11
27.5N   80.2W                 74                N/A     3/10   2/11

$$
FLZ050-056-061-142-242-148-248-149-249-151-251-155-255-
160-260-291000-
WEST CENTRAL FLORIDA

CITY           SKY/WX    TMP DP  RH WIND       PRES   REMARKS
CRYSTAL RIVER  MOCLDY    54  54 100 CALM      30.00F
INVERNESS      FAIR      55  55 100 CALM      30.01S FOG
BROOKSVILLE    CLEAR     55  55 100 CALM      30.00F
CLEARWATER AIR FAIR      63  63 100 CALM      29.99S
ST PETE CLEARW CLEAR     69  63  81 NE5       29.99F
TAMPA INTL     CLEAR     66  62  87 N5        30.00S
TAMPA EXEC     CLEAR     59  57  94 CALM      30.01S FOG
PLANT CITY     CLEAR     63  61  94 CALM      30.02S
MACDILL AFB    CLEAR     63  63 100 CALM      29.99S
PETER O KNIGHT MOCLDY    68  63  83 NE3       30.00S
ST PETERSBURG  CLEAR     69  65  86 NE5       29.98S
SARASOTA       CLEAR     62  60  93 CALM      29.97F
VENICE         FAIR      64  63  94 NE3       29.99S

STATION/POSITION SKY/WX   TEMP    WIND        PRES    WAVE   SWELL
                          AIR SEA DIR/SP/G            HT/PER HT/PER
                          (F)     (DEG/KT/KT) (MB)    (FT/S) (FT/S)
27.3N   84.2W                 71                N/A     1/ 6
CLEARWATER BEACH           68 72   90/  1/  1 1015.7F
MIDDLE TAMPA BAY           71      70/  6/  7 1015.7F
VENICE                     66 72   40/  4/  5 1015.2F

$$
FLZ066-069-070-075>078-162-262-165-265-291000-
SOUTHWEST FLORIDA AND KEYS

CITY           SKY/WX    TMP DP  RH WIND       PRES   REMARKS
PUNTA GORDA    CLEAR     59  58  96 NE3       30.00S FOG
FT MYERS       CLEAR     66  63  90 E3        29.97S
SOUTHWEST INTL CLEAR     64  61  90 NE3       29.98S
NAPLES         CLEAR     65  64  97 SE3       29.98R
IMMOKALEE      FAIR      61  61 100 SE3       29.98R
MARATHON       CLEAR     76  67  73 SE7       29.97F
KEY WEST NAS   MOCLDY    74  66  76 SE10      29.97F
KEY WEST INTL  MOCLDY    76  67  73 E10       29.97F

STATION/POSITION SKY/WX   TEMP    WIND        PRES    WAVE   SWELL
                          AIR SEA DIR/SP/G            HT/PER HT/PER
                          (F)     (DEG/KT/KT) (MB)    (FT/S) (FT/S)
NAPLES                        74              1015.0R
26.0N   85.6W              75 78  110/ 10/ 12 1014.7F   2/ 5   2/ 5
DRY TORTUGAS               74      90/ 10/ 11 1015.0F
SAND KEY                   76     120/ 12/ 17 1015.3F
LONG KEY                   75 77  150/  7/  8 1015.5F
MOLASSES REEF              75 78  150/  7/  8 1015.7F

$$
FLZ067-068-071>074-168-172>174-291000-
SOUTHEAST FLORIDA

CITY           SKY/WX    TMP DP  RH WIND       PRES   REMARKS
W PALM BEACH   PTCLDY    70  62  76 SE5       29.99S
FT LAUDER-EXEC PTCLDY    71  63  75 CALM      29.98F
FT LAUDERDALE  PTCLDY    73  65  75 SE3       29.97F
POMPANO BEACH  PTCLDY    73  65  75 SE5       29.98F
PEMBROKE PINES PTCLDY    70  65  84 CALM      30.00S
OPA LOCKA      PTCLDY   N/A N/A N/A CALM      29.99F
MIAMI          PTCLDY    72  65  78 SE3       29.98F
WEST KENDALL   CLEAR     66  64  93 CALM      29.98F
HOMESTEAD      PTCLDY    67  67 100 CALM      29.98S

STATION/POSITION SKY/WX   TEMP    WIND        PRES    WAVE   SWELL
                          AIR SEA DIR/SP/G            HT/PER HT/PER
                          (F)     (DEG/KT/KT) (MB)    (FT/S) (FT/S)
PORT EVERGLADES            75     130/  4/  7 1015.3F
LAKE WORTH                        140/  9/ 11   N/A
FOWEY ROCKS                75 76  110/  7/  8 1016.0F
SETTLEMENT POINT           70     140/  6/  7 1015.4F

$$





USA.gov is the U.S. government's official web portal to all federal, state and local government web resources and services.